Index of /20260508/WXO-DD/model_rdps/10km/00/021
Name Last modified Size Description
Parent Directory -
20260508T00Z_MSC_RDPS_AbsoluteVorticity_IsbL-0250_RLatLon0.09_PT021H.grib2 2026-05-08 02:46 603K
20260508T00Z_MSC_RDPS_AbsoluteVorticity_IsbL-0500_RLatLon0.09_PT021H.grib2 2026-05-08 02:46 561K
20260508T00Z_MSC_RDPS_AbsoluteVorticity_IsbL-0700_RLatLon0.09_PT021H.grib2 2026-05-08 02:46 633K
20260508T00Z_MSC_RDPS_AbsoluteVorticity_IsbL-0850_RLatLon0.09_PT021H.grib2 2026-05-08 02:46 793K
20260508T00Z_MSC_RDPS_AirTemp_AGL-120m_RLatLon0.09_PT021H.grib2 2026-05-08 02:46 380K
20260508T00Z_MSC_RDPS_AirTemp_AGL-2m_RLatLon0.09_PT021H.grib2 2026-05-08 02:46 634K
20260508T00Z_MSC_RDPS_AirTemp_AGL-40m_RLatLon0.09_PT021H.grib2 2026-05-08 02:46 389K
20260508T00Z_MSC_RDPS_AirTemp_AGL-80m_RLatLon0.09_PT021H.grib2 2026-05-08 02:46 384K
20260508T00Z_MSC_RDPS_AirTemp_IsbL-0001_RLatLon0.09_PT021H.grib2 2026-05-08 02:46 316K
20260508T00Z_MSC_RDPS_AirTemp_IsbL-0005_RLatLon0.09_PT021H.grib2 2026-05-08 02:46 373K
20260508T00Z_MSC_RDPS_AirTemp_IsbL-0010_RLatLon0.09_PT021H.grib2 2026-05-08 02:46 389K
20260508T00Z_MSC_RDPS_AirTemp_IsbL-0020_RLatLon0.09_PT021H.grib2 2026-05-08 02:46 314K
20260508T00Z_MSC_RDPS_AirTemp_IsbL-0030_RLatLon0.09_PT021H.grib2 2026-05-08 02:46 339K
20260508T00Z_MSC_RDPS_AirTemp_IsbL-0050_RLatLon0.09_PT021H.grib2 2026-05-08 02:46 313K
20260508T00Z_MSC_RDPS_AirTemp_IsbL-0100_RLatLon0.09_PT021H.grib2 2026-05-08 02:46 388K
20260508T00Z_MSC_RDPS_AirTemp_IsbL-0150_RLatLon0.09_PT021H.grib2 2026-05-08 02:46 409K
20260508T00Z_MSC_RDPS_AirTemp_IsbL-0175_RLatLon0.09_PT021H.grib2 2026-05-08 02:46 404K
20260508T00Z_MSC_RDPS_AirTemp_IsbL-0200_RLatLon0.09_PT021H.grib2 2026-05-08 02:46 413K
20260508T00Z_MSC_RDPS_AirTemp_IsbL-0225_RLatLon0.09_PT021H.grib2 2026-05-08 02:46 412K
20260508T00Z_MSC_RDPS_AirTemp_IsbL-0250_RLatLon0.09_PT021H.grib2 2026-05-08 02:46 419K
20260508T00Z_MSC_RDPS_AirTemp_IsbL-0275_RLatLon0.09_PT021H.grib2 2026-05-08 02:46 398K
20260508T00Z_MSC_RDPS_AirTemp_IsbL-0300_RLatLon0.09_PT021H.grib2 2026-05-08 02:46 430K
20260508T00Z_MSC_RDPS_AirTemp_IsbL-0350_RLatLon0.09_PT021H.grib2 2026-05-08 02:46 417K
20260508T00Z_MSC_RDPS_AirTemp_IsbL-0400_RLatLon0.09_PT021H.grib2 2026-05-08 02:46 421K
20260508T00Z_MSC_RDPS_AirTemp_IsbL-0450_RLatLon0.09_PT021H.grib2 2026-05-08 02:46 432K
20260508T00Z_MSC_RDPS_AirTemp_IsbL-0500_RLatLon0.09_PT021H.grib2 2026-05-08 02:46 446K
20260508T00Z_MSC_RDPS_AirTemp_IsbL-0550_RLatLon0.09_PT021H.grib2 2026-05-08 02:46 430K
20260508T00Z_MSC_RDPS_AirTemp_IsbL-0600_RLatLon0.09_PT021H.grib2 2026-05-08 02:46 450K
20260508T00Z_MSC_RDPS_AirTemp_IsbL-0650_RLatLon0.09_PT021H.grib2 2026-05-08 02:46 468K
20260508T00Z_MSC_RDPS_AirTemp_IsbL-0700_RLatLon0.09_PT021H.grib2 2026-05-08 02:46 496K
20260508T00Z_MSC_RDPS_AirTemp_IsbL-0750_RLatLon0.09_PT021H.grib2 2026-05-08 02:46 422K
20260508T00Z_MSC_RDPS_AirTemp_IsbL-0800_RLatLon0.09_PT021H.grib2 2026-05-08 02:46 465K
20260508T00Z_MSC_RDPS_AirTemp_IsbL-0850_RLatLon0.09_PT021H.grib2 2026-05-08 02:46 508K
20260508T00Z_MSC_RDPS_AirTemp_IsbL-0875_RLatLon0.09_PT021H.grib2 2026-05-08 02:46 524K
20260508T00Z_MSC_RDPS_AirTemp_IsbL-0900_RLatLon0.09_PT021H.grib2 2026-05-08 02:46 532K
20260508T00Z_MSC_RDPS_AirTemp_IsbL-0925_RLatLon0.09_PT021H.grib2 2026-05-08 02:46 534K
20260508T00Z_MSC_RDPS_AirTemp_IsbL-0950_RLatLon0.09_PT021H.grib2 2026-05-08 02:46 536K
20260508T00Z_MSC_RDPS_AirTemp_IsbL-0970_RLatLon0.09_PT021H.grib2 2026-05-08 02:46 530K
20260508T00Z_MSC_RDPS_AirTemp_IsbL-0985_RLatLon0.09_PT021H.grib2 2026-05-08 02:46 518K
20260508T00Z_MSC_RDPS_AirTemp_IsbL-1000_RLatLon0.09_PT021H.grib2 2026-05-08 02:46 508K
20260508T00Z_MSC_RDPS_AirTemp_IsbL-1015_RLatLon0.09_PT021H.grib2 2026-05-08 02:46 517K
20260508T00Z_MSC_RDPS_Albedo_Sfc_RLatLon0.09_PT021H.grib2 2026-05-08 02:46 160K
20260508T00Z_MSC_RDPS_CAPE_Sfc_RLatLon0.09_PT021H.grib2 2026-05-08 02:46 1.8M
20260508T00Z_MSC_RDPS_CIN_Sfc_RLatLon0.09_PT021H.grib2 2026-05-08 02:46 1.3M
20260508T00Z_MSC_RDPS_CloudWater_EAtm_RLatLon0.09_PT021H.grib2 2026-05-08 02:46 230K
20260508T00Z_MSC_RDPS_ConvectivePrecip-Accum_Sfc_RLatLon0.09_PT021H.grib2 2026-05-08 02:46 805K
20260508T00Z_MSC_RDPS_DewPointDepression_AGL-2m_RLatLon0.09_PT021H.grib2 2026-05-08 02:46 428K
20260508T00Z_MSC_RDPS_DewPointDepression_IsbL-0001_RLatLon0.09_PT021H.grib2 2026-05-08 02:46 193
20260508T00Z_MSC_RDPS_DewPointDepression_IsbL-0005_RLatLon0.09_PT021H.grib2 2026-05-08 02:46 193
20260508T00Z_MSC_RDPS_DewPointDepression_IsbL-0010_RLatLon0.09_PT021H.grib2 2026-05-08 02:46 193
20260508T00Z_MSC_RDPS_DewPointDepression_IsbL-0020_RLatLon0.09_PT021H.grib2 2026-05-08 02:46 193
20260508T00Z_MSC_RDPS_DewPointDepression_IsbL-0030_RLatLon0.09_PT021H.grib2 2026-05-08 02:46 193
20260508T00Z_MSC_RDPS_DewPointDepression_IsbL-0050_RLatLon0.09_PT021H.grib2 2026-05-08 02:46 84K
20260508T00Z_MSC_RDPS_DewPointDepression_IsbL-0100_RLatLon0.09_PT021H.grib2 2026-05-08 02:46 109K
20260508T00Z_MSC_RDPS_DewPointDepression_IsbL-0150_RLatLon0.09_PT021H.grib2 2026-05-08 02:46 144K
20260508T00Z_MSC_RDPS_DewPointDepression_IsbL-0175_RLatLon0.09_PT021H.grib2 2026-05-08 02:46 176K
20260508T00Z_MSC_RDPS_DewPointDepression_IsbL-0200_RLatLon0.09_PT021H.grib2 2026-05-08 02:46 223K
20260508T00Z_MSC_RDPS_DewPointDepression_IsbL-0225_RLatLon0.09_PT021H.grib2 2026-05-08 02:46 256K
20260508T00Z_MSC_RDPS_DewPointDepression_IsbL-0250_RLatLon0.09_PT021H.grib2 2026-05-08 02:46 301K
20260508T00Z_MSC_RDPS_DewPointDepression_IsbL-0275_RLatLon0.09_PT021H.grib2 2026-05-08 02:46 310K
20260508T00Z_MSC_RDPS_DewPointDepression_IsbL-0300_RLatLon0.09_PT021H.grib2 2026-05-08 02:46 323K
20260508T00Z_MSC_RDPS_DewPointDepression_IsbL-0350_RLatLon0.09_PT021H.grib2 2026-05-08 02:46 324K
20260508T00Z_MSC_RDPS_DewPointDepression_IsbL-0400_RLatLon0.09_PT021H.grib2 2026-05-08 02:46 331K
20260508T00Z_MSC_RDPS_DewPointDepression_IsbL-0450_RLatLon0.09_PT021H.grib2 2026-05-08 02:46 335K
20260508T00Z_MSC_RDPS_DewPointDepression_IsbL-0500_RLatLon0.09_PT021H.grib2 2026-05-08 02:46 343K
20260508T00Z_MSC_RDPS_DewPointDepression_IsbL-0550_RLatLon0.09_PT021H.grib2 2026-05-08 02:46 359K
20260508T00Z_MSC_RDPS_DewPointDepression_IsbL-0600_RLatLon0.09_PT021H.grib2 2026-05-08 02:46 378K
20260508T00Z_MSC_RDPS_DewPointDepression_IsbL-0650_RLatLon0.09_PT021H.grib2 2026-05-08 02:46 391K
20260508T00Z_MSC_RDPS_DewPointDepression_IsbL-0700_RLatLon0.09_PT021H.grib2 2026-05-08 02:46 406K
20260508T00Z_MSC_RDPS_DewPointDepression_IsbL-0750_RLatLon0.09_PT021H.grib2 2026-05-08 02:46 428K
20260508T00Z_MSC_RDPS_DewPointDepression_IsbL-0800_RLatLon0.09_PT021H.grib2 2026-05-08 02:46 467K
20260508T00Z_MSC_RDPS_DewPointDepression_IsbL-0850_RLatLon0.09_PT021H.grib2 2026-05-08 02:46 489K
20260508T00Z_MSC_RDPS_DewPointDepression_IsbL-0875_RLatLon0.09_PT021H.grib2 2026-05-08 02:46 485K
20260508T00Z_MSC_RDPS_DewPointDepression_IsbL-0900_RLatLon0.09_PT021H.grib2 2026-05-08 02:46 474K
20260508T00Z_MSC_RDPS_DewPointDepression_IsbL-0925_RLatLon0.09_PT021H.grib2 2026-05-08 02:46 461K
20260508T00Z_MSC_RDPS_DewPointDepression_IsbL-0950_RLatLon0.09_PT021H.grib2 2026-05-08 02:46 451K
20260508T00Z_MSC_RDPS_DewPointDepression_IsbL-0970_RLatLon0.09_PT021H.grib2 2026-05-08 02:46 443K
20260508T00Z_MSC_RDPS_DewPointDepression_IsbL-0985_RLatLon0.09_PT021H.grib2 2026-05-08 02:46 436K
20260508T00Z_MSC_RDPS_DewPointDepression_IsbL-1000_RLatLon0.09_PT021H.grib2 2026-05-08 02:46 432K
20260508T00Z_MSC_RDPS_DewPointDepression_IsbL-1015_RLatLon0.09_PT021H.grib2 2026-05-08 02:46 423K
20260508T00Z_MSC_RDPS_DewPoint_AGL-2m_RLatLon0.09_PT021H.grib2 2026-05-08 02:46 404K
20260508T00Z_MSC_RDPS_DownwardLongwaveRadiationFlux-Accum_Sfc_RLatLon0.09_PT021H.grib2 2026-05-08 02:46 425K
20260508T00Z_MSC_RDPS_DownwardShortwaveRadiationFlux-Accum_NTAtm_RLatLon0.09_PT021H.grib2 2026-05-08 02:46 127K
20260508T00Z_MSC_RDPS_DownwardShortwaveRadiationFlux-Accum_Sfc_RLatLon0.09_PT021H.grib2 2026-05-08 02:46 623K
20260508T00Z_MSC_RDPS_FreezingRain-Accum1h_Sfc_RLatLon0.09_PT021H.grib2 2026-05-08 02:46 31K
20260508T00Z_MSC_RDPS_FreezingRain-Accum3h_Sfc_RLatLon0.09_PT021H.grib2 2026-05-08 02:46 38K
20260508T00Z_MSC_RDPS_FreezingRain-Accum_Sfc_RLatLon0.09_PT021H.grib2 2026-05-08 02:46 134K
20260508T00Z_MSC_RDPS_GeopotentialHeight_IsbL-0001_RLatLon0.09_PT021H.grib2 2026-05-08 02:46 245K
20260508T00Z_MSC_RDPS_GeopotentialHeight_IsbL-0005_RLatLon0.09_PT021H.grib2 2026-05-08 02:46 308K
20260508T00Z_MSC_RDPS_GeopotentialHeight_IsbL-0010_RLatLon0.09_PT021H.grib2 2026-05-08 02:46 310K
20260508T00Z_MSC_RDPS_GeopotentialHeight_IsbL-0020_RLatLon0.09_PT021H.grib2 2026-05-08 02:46 309K
20260508T00Z_MSC_RDPS_GeopotentialHeight_IsbL-0030_RLatLon0.09_PT021H.grib2 2026-05-08 02:46 311K
20260508T00Z_MSC_RDPS_GeopotentialHeight_IsbL-0050_RLatLon0.09_PT021H.grib2 2026-05-08 02:46 312K
20260508T00Z_MSC_RDPS_GeopotentialHeight_IsbL-0100_RLatLon0.09_PT021H.grib2 2026-05-08 02:46 286K
20260508T00Z_MSC_RDPS_GeopotentialHeight_IsbL-0150_RLatLon0.09_PT021H.grib2 2026-05-08 02:46 228K
20260508T00Z_MSC_RDPS_GeopotentialHeight_IsbL-0175_RLatLon0.09_PT021H.grib2 2026-05-08 02:46 231K
20260508T00Z_MSC_RDPS_GeopotentialHeight_IsbL-0200_RLatLon0.09_PT021H.grib2 2026-05-08 02:46 265K
20260508T00Z_MSC_RDPS_GeopotentialHeight_IsbL-0225_RLatLon0.09_PT021H.grib2 2026-05-08 02:46 266K
20260508T00Z_MSC_RDPS_GeopotentialHeight_IsbL-0250_RLatLon0.09_PT021H.grib2 2026-05-08 02:46 267K
20260508T00Z_MSC_RDPS_GeopotentialHeight_IsbL-0275_RLatLon0.09_PT021H.grib2 2026-05-08 02:46 266K
20260508T00Z_MSC_RDPS_GeopotentialHeight_IsbL-0300_RLatLon0.09_PT021H.grib2 2026-05-08 02:46 266K
20260508T00Z_MSC_RDPS_GeopotentialHeight_IsbL-0350_RLatLon0.09_PT021H.grib2 2026-05-08 02:46 232K
20260508T00Z_MSC_RDPS_GeopotentialHeight_IsbL-0400_RLatLon0.09_PT021H.grib2 2026-05-08 02:46 228K
20260508T00Z_MSC_RDPS_GeopotentialHeight_IsbL-0450_RLatLon0.09_PT021H.grib2 2026-05-08 02:46 295K
20260508T00Z_MSC_RDPS_GeopotentialHeight_IsbL-0500_RLatLon0.09_PT021H.grib2 2026-05-08 02:46 291K
20260508T00Z_MSC_RDPS_GeopotentialHeight_IsbL-0550_RLatLon0.09_PT021H.grib2 2026-05-08 02:46 287K
20260508T00Z_MSC_RDPS_GeopotentialHeight_IsbL-0600_RLatLon0.09_PT021H.grib2 2026-05-08 02:46 286K
20260508T00Z_MSC_RDPS_GeopotentialHeight_IsbL-0650_RLatLon0.09_PT021H.grib2 2026-05-08 02:46 258K
20260508T00Z_MSC_RDPS_GeopotentialHeight_IsbL-0700_RLatLon0.09_PT021H.grib2 2026-05-08 02:46 257K
20260508T00Z_MSC_RDPS_GeopotentialHeight_IsbL-0750_RLatLon0.09_PT021H.grib2 2026-05-08 02:46 343K
20260508T00Z_MSC_RDPS_GeopotentialHeight_IsbL-0800_RLatLon0.09_PT021H.grib2 2026-05-08 02:46 350K
20260508T00Z_MSC_RDPS_GeopotentialHeight_IsbL-0850_RLatLon0.09_PT021H.grib2 2026-05-08 02:46 356K
20260508T00Z_MSC_RDPS_GeopotentialHeight_IsbL-0875_RLatLon0.09_PT021H.grib2 2026-05-08 02:46 357K
20260508T00Z_MSC_RDPS_GeopotentialHeight_IsbL-0900_RLatLon0.09_PT021H.grib2 2026-05-08 02:46 364K
20260508T00Z_MSC_RDPS_GeopotentialHeight_IsbL-0925_RLatLon0.09_PT021H.grib2 2026-05-08 02:46 366K
20260508T00Z_MSC_RDPS_GeopotentialHeight_IsbL-0950_RLatLon0.09_PT021H.grib2 2026-05-08 02:46 372K
20260508T00Z_MSC_RDPS_GeopotentialHeight_IsbL-0970_RLatLon0.09_PT021H.grib2 2026-05-08 02:46 379K
20260508T00Z_MSC_RDPS_GeopotentialHeight_IsbL-0985_RLatLon0.09_PT021H.grib2 2026-05-08 02:46 388K
20260508T00Z_MSC_RDPS_GeopotentialHeight_IsbL-1000_RLatLon0.09_PT021H.grib2 2026-05-08 02:46 400K
20260508T00Z_MSC_RDPS_GeopotentialHeight_IsbL-1015_RLatLon0.09_PT021H.grib2 2026-05-08 02:46 416K
20260508T00Z_MSC_RDPS_HighLowPressure_MSL_RLatLon0.09_PT021H.json 2026-05-08 02:38 18K
20260508T00Z_MSC_RDPS_Humidex_Sfc_RLatLon0.09_PT021H.grib2 2026-05-08 02:46 2.4M
20260508T00Z_MSC_RDPS_IcePellets-Accum1h_Sfc_RLatLon0.09_PT021H.grib2 2026-05-08 02:46 9.5K
20260508T00Z_MSC_RDPS_IcePellets-Accum3h_Sfc_RLatLon0.09_PT021H.grib2 2026-05-08 02:46 10K
20260508T00Z_MSC_RDPS_IcePellets-Accum_Sfc_RLatLon0.09_PT021H.grib2 2026-05-08 02:46 15K
20260508T00Z_MSC_RDPS_KIndex_Sfc_RLatLon0.09_PT021H.grib2 2026-05-08 02:46 2.5M
20260508T00Z_MSC_RDPS_LatentHeatNetFlux_Sfc_RLatLon0.09_PT021H.grib2 2026-05-08 02:46 318K
20260508T00Z_MSC_RDPS_LiftedIndex-MU-VT_IsbL-0500_RLatLon0.09_PT021H.grib2 2026-05-08 02:46 2.4M
20260508T00Z_MSC_RDPS_NetLongwaveRadiationFlux-Accum_Sfc_RLatLon0.09_PT021H.grib2 2026-05-08 02:46 563K
20260508T00Z_MSC_RDPS_NetShortwaveRadiationFlux-Accum_Sfc_RLatLon0.09_PT021H.grib2 2026-05-08 02:46 618K
20260508T00Z_MSC_RDPS_PlanetaryBoundaryLayerHeight_Sfc_RLatLon0.09_PT021H.grib2 2026-05-08 02:46 1.0M
20260508T00Z_MSC_RDPS_Precip-Accum1h_Sfc_RLatLon0.09_PT021H.grib2 2026-05-08 02:46 1.2M
20260508T00Z_MSC_RDPS_Precip-Accum3h_Sfc_RLatLon0.09_PT021H.grib2 2026-05-08 02:46 1.3M
20260508T00Z_MSC_RDPS_Precip-Accum_Sfc_RLatLon0.09_PT021H.grib2 2026-05-08 02:46 1.8M
20260508T00Z_MSC_RDPS_PrecipRate_Sfc_RLatLon0.09_PT021H.grib2 2026-05-08 02:46 176K
20260508T00Z_MSC_RDPS_PrecipType-Instant_Sfc_RLatLon0.09_PT021H.grib2 2026-05-08 02:46 605K
20260508T00Z_MSC_RDPS_Pressure-Trend3h_Sfc_RLatLon0.09_PT021H.grib2 2026-05-08 02:46 1.2M
20260508T00Z_MSC_RDPS_Pressure_MSL_RLatLon0.09_PT021H.grib2 2026-05-08 02:46 330K
20260508T00Z_MSC_RDPS_Pressure_PVU-1.5_RLatLon0.09_PT021H.grib2 2026-05-08 02:46 2.5M
20260508T00Z_MSC_RDPS_Pressure_PVU-1_RLatLon0.09_PT021H.grib2 2026-05-08 02:46 2.4M
20260508T00Z_MSC_RDPS_Pressure_PVU-2_RLatLon0.09_PT021H.grib2 2026-05-08 02:46 2.4M
20260508T00Z_MSC_RDPS_Pressure_Sfc_RLatLon0.09_PT021H.grib2 2026-05-08 02:46 499K
20260508T00Z_MSC_RDPS_RadiativeTemp_Sfc_RLatLon0.09_PT021H.grib2 2026-05-08 02:46 329K
20260508T00Z_MSC_RDPS_Rain-Accum1h_Sfc_RLatLon0.09_PT021H.grib2 2026-05-08 02:46 571K
20260508T00Z_MSC_RDPS_Rain-Accum3h_Sfc_RLatLon0.09_PT021H.grib2 2026-05-08 02:46 657K
20260508T00Z_MSC_RDPS_Rain-Accum_Sfc_RLatLon0.09_PT021H.grib2 2026-05-08 02:46 1.4M
20260508T00Z_MSC_RDPS_RelativeHumidity_AGL-2m_RLatLon0.09_PT021H.grib2 2026-05-08 02:46 875K
20260508T00Z_MSC_RDPS_RelativeHumidity_IsbL-0010_RLatLon0.09_PT021H.grib2 2026-05-08 02:46 698K
20260508T00Z_MSC_RDPS_RelativeHumidity_IsbL-0020_RLatLon0.09_PT021H.grib2 2026-05-08 02:46 653K
20260508T00Z_MSC_RDPS_RelativeHumidity_IsbL-0030_RLatLon0.09_PT021H.grib2 2026-05-08 02:46 634K
20260508T00Z_MSC_RDPS_RelativeHumidity_IsbL-0050_RLatLon0.09_PT021H.grib2 2026-05-08 02:46 364K
20260508T00Z_MSC_RDPS_RelativeHumidity_IsbL-0100_RLatLon0.09_PT021H.grib2 2026-05-08 02:46 279K
20260508T00Z_MSC_RDPS_RelativeHumidity_IsbL-0150_RLatLon0.09_PT021H.grib2 2026-05-08 02:46 416K
20260508T00Z_MSC_RDPS_RelativeHumidity_IsbL-0175_RLatLon0.09_PT021H.grib2 2026-05-08 02:46 476K
20260508T00Z_MSC_RDPS_RelativeHumidity_IsbL-0200_RLatLon0.09_PT021H.grib2 2026-05-08 02:46 550K
20260508T00Z_MSC_RDPS_RelativeHumidity_IsbL-0225_RLatLon0.09_PT021H.grib2 2026-05-08 02:46 613K
20260508T00Z_MSC_RDPS_RelativeHumidity_IsbL-0250_RLatLon0.09_PT021H.grib2 2026-05-08 02:46 679K
20260508T00Z_MSC_RDPS_RelativeHumidity_IsbL-0275_RLatLon0.09_PT021H.grib2 2026-05-08 02:46 708K
20260508T00Z_MSC_RDPS_RelativeHumidity_IsbL-0300_RLatLon0.09_PT021H.grib2 2026-05-08 02:46 746K
20260508T00Z_MSC_RDPS_RelativeHumidity_IsbL-0350_RLatLon0.09_PT021H.grib2 2026-05-08 02:46 760K
20260508T00Z_MSC_RDPS_RelativeHumidity_IsbL-0400_RLatLon0.09_PT021H.grib2 2026-05-08 02:46 777K
20260508T00Z_MSC_RDPS_RelativeHumidity_IsbL-0450_RLatLon0.09_PT021H.grib2 2026-05-08 02:46 784K
20260508T00Z_MSC_RDPS_RelativeHumidity_IsbL-0500_RLatLon0.09_PT021H.grib2 2026-05-08 02:46 794K
20260508T00Z_MSC_RDPS_RelativeHumidity_IsbL-0550_RLatLon0.09_PT021H.grib2 2026-05-08 02:46 817K
20260508T00Z_MSC_RDPS_RelativeHumidity_IsbL-0600_RLatLon0.09_PT021H.grib2 2026-05-08 02:46 845K
20260508T00Z_MSC_RDPS_RelativeHumidity_IsbL-0650_RLatLon0.09_PT021H.grib2 2026-05-08 02:46 866K
20260508T00Z_MSC_RDPS_RelativeHumidity_IsbL-0700_RLatLon0.09_PT021H.grib2 2026-05-08 02:46 907K
20260508T00Z_MSC_RDPS_RelativeHumidity_IsbL-0750_RLatLon0.09_PT021H.grib2 2026-05-08 02:46 954K
20260508T00Z_MSC_RDPS_RelativeHumidity_IsbL-0800_RLatLon0.09_PT021H.grib2 2026-05-08 02:46 1.0M
20260508T00Z_MSC_RDPS_RelativeHumidity_IsbL-0850_RLatLon0.09_PT021H.grib2 2026-05-08 02:46 1.1M
20260508T00Z_MSC_RDPS_RelativeHumidity_IsbL-0875_RLatLon0.09_PT021H.grib2 2026-05-08 02:46 1.1M
20260508T00Z_MSC_RDPS_RelativeHumidity_IsbL-0900_RLatLon0.09_PT021H.grib2 2026-05-08 02:46 1.1M
20260508T00Z_MSC_RDPS_RelativeHumidity_IsbL-0925_RLatLon0.09_PT021H.grib2 2026-05-08 02:46 1.1M
20260508T00Z_MSC_RDPS_RelativeHumidity_IsbL-0950_RLatLon0.09_PT021H.grib2 2026-05-08 02:46 1.1M
20260508T00Z_MSC_RDPS_RelativeHumidity_IsbL-0970_RLatLon0.09_PT021H.grib2 2026-05-08 02:46 1.1M
20260508T00Z_MSC_RDPS_RelativeHumidity_IsbL-0985_RLatLon0.09_PT021H.grib2 2026-05-08 02:46 1.0M
20260508T00Z_MSC_RDPS_RelativeHumidity_IsbL-1000_RLatLon0.09_PT021H.grib2 2026-05-08 02:46 1.0M
20260508T00Z_MSC_RDPS_RelativeHumidity_IsbL-1015_RLatLon0.09_PT021H.grib2 2026-05-08 02:46 1.0M
20260508T00Z_MSC_RDPS_Runoff-Accum_Sfc_RLatLon0.09_PT021H.grib2 2026-05-08 02:46 42K
20260508T00Z_MSC_RDPS_SWEATIndex_Sfc_RLatLon0.09_PT021H.grib2 2026-05-08 02:46 2.4M
20260508T00Z_MSC_RDPS_SeeingIndex_EAtm_RLatLon0.09_PT021H.grib2 2026-05-08 02:46 1.0M
20260508T00Z_MSC_RDPS_SensibleHeatNetFlux_Sfc_RLatLon0.09_PT021H.grib2 2026-05-08 02:46 280K
20260508T00Z_MSC_RDPS_ShowalterIndex_IsbL-0500_RLatLon0.09_PT021H.grib2 2026-05-08 02:46 2.6M
20260508T00Z_MSC_RDPS_SkyTransparencyIndex_EAtm_RLatLon0.09_PT021H.grib2 2026-05-08 02:46 722K
20260508T00Z_MSC_RDPS_Snow-Accum1h_Sfc_RLatLon0.09_PT021H.grib2 2026-05-08 02:46 480K
20260508T00Z_MSC_RDPS_Snow-Accum3h_Sfc_RLatLon0.09_PT021H.grib2 2026-05-08 02:46 441K
20260508T00Z_MSC_RDPS_Snow-Accum_Sfc_RLatLon0.09_PT021H.grib2 2026-05-08 02:46 629K
20260508T00Z_MSC_RDPS_SnowDensity_Sfc_RLatLon0.09_PT021H.grib2 2026-05-08 02:46 168K
20260508T00Z_MSC_RDPS_SnowDepth_Sfc_RLatLon0.09_PT021H.grib2 2026-05-08 02:46 625K
20260508T00Z_MSC_RDPS_SoilTemp_DBS-0to10cm_RLatLon0.09_PT021H.grib2 2026-05-08 02:46 224K
20260508T00Z_MSC_RDPS_SoilTemp_Sfc_RLatLon0.09_PT021H.grib2 2026-05-08 02:46 285K
20260508T00Z_MSC_RDPS_SoilVolumetricIceContent_Sfc_RLatLon0.09_PT021H.grib2 2026-05-08 02:46 146K
20260508T00Z_MSC_RDPS_SoilVolumetricWaterContent_DBS-0to10cm_RLatLon0.09_PT021H.grib2 2026-05-08 02:46 285K
20260508T00Z_MSC_RDPS_SoilVolumetricWaterContent_DBS-0to1cm_RLatLon0.09_PT021H.grib2 2026-05-08 02:46 337K
20260508T00Z_MSC_RDPS_SpecificHumidity_AGL-120m_RLatLon0.09_PT021H.grib2 2026-05-08 02:46 510K
20260508T00Z_MSC_RDPS_SpecificHumidity_AGL-2m_RLatLon0.09_PT021H.grib2 2026-05-08 02:46 683K
20260508T00Z_MSC_RDPS_SpecificHumidity_AGL-40m_RLatLon0.09_PT021H.grib2 2026-05-08 02:46 515K
20260508T00Z_MSC_RDPS_SpecificHumidity_AGL-80m_RLatLon0.09_PT021H.grib2 2026-05-08 02:46 512K
20260508T00Z_MSC_RDPS_SpecificHumidity_IsbL-0001_RLatLon0.09_PT021H.grib2 2026-05-08 02:46 369K
20260508T00Z_MSC_RDPS_SpecificHumidity_IsbL-0005_RLatLon0.09_PT021H.grib2 2026-05-08 02:46 375K
20260508T00Z_MSC_RDPS_SpecificHumidity_IsbL-0010_RLatLon0.09_PT021H.grib2 2026-05-08 02:46 405K
20260508T00Z_MSC_RDPS_SpecificHumidity_IsbL-0020_RLatLon0.09_PT021H.grib2 2026-05-08 02:46 383K
20260508T00Z_MSC_RDPS_SpecificHumidity_IsbL-0030_RLatLon0.09_PT021H.grib2 2026-05-08 02:46 375K
20260508T00Z_MSC_RDPS_SpecificHumidity_IsbL-0050_RLatLon0.09_PT021H.grib2 2026-05-08 02:46 457K
20260508T00Z_MSC_RDPS_SpecificHumidity_IsbL-0100_RLatLon0.09_PT021H.grib2 2026-05-08 02:46 445K
20260508T00Z_MSC_RDPS_SpecificHumidity_IsbL-0150_RLatLon0.09_PT021H.grib2 2026-05-08 02:46 461K
20260508T00Z_MSC_RDPS_SpecificHumidity_IsbL-0175_RLatLon0.09_PT021H.grib2 2026-05-08 02:46 447K
20260508T00Z_MSC_RDPS_SpecificHumidity_IsbL-0200_RLatLon0.09_PT021H.grib2 2026-05-08 02:46 480K
20260508T00Z_MSC_RDPS_SpecificHumidity_IsbL-0225_RLatLon0.09_PT021H.grib2 2026-05-08 02:46 477K
20260508T00Z_MSC_RDPS_SpecificHumidity_IsbL-0250_RLatLon0.09_PT021H.grib2 2026-05-08 02:46 522K
20260508T00Z_MSC_RDPS_SpecificHumidity_IsbL-0275_RLatLon0.09_PT021H.grib2 2026-05-08 02:46 482K
20260508T00Z_MSC_RDPS_SpecificHumidity_IsbL-0300_RLatLon0.09_PT021H.grib2 2026-05-08 02:46 451K
20260508T00Z_MSC_RDPS_SpecificHumidity_IsbL-0350_RLatLon0.09_PT021H.grib2 2026-05-08 02:46 440K
20260508T00Z_MSC_RDPS_SpecificHumidity_IsbL-0400_RLatLon0.09_PT021H.grib2 2026-05-08 02:46 521K
20260508T00Z_MSC_RDPS_SpecificHumidity_IsbL-0450_RLatLon0.09_PT021H.grib2 2026-05-08 02:46 458K
20260508T00Z_MSC_RDPS_SpecificHumidity_IsbL-0500_RLatLon0.09_PT021H.grib2 2026-05-08 02:46 510K
20260508T00Z_MSC_RDPS_SpecificHumidity_IsbL-0550_RLatLon0.09_PT021H.grib2 2026-05-08 02:46 586K
20260508T00Z_MSC_RDPS_SpecificHumidity_IsbL-0600_RLatLon0.09_PT021H.grib2 2026-05-08 02:46 645K
20260508T00Z_MSC_RDPS_SpecificHumidity_IsbL-0650_RLatLon0.09_PT021H.grib2 2026-05-08 02:46 569K
20260508T00Z_MSC_RDPS_SpecificHumidity_IsbL-0700_RLatLon0.09_PT021H.grib2 2026-05-08 02:46 622K
20260508T00Z_MSC_RDPS_SpecificHumidity_IsbL-0750_RLatLon0.09_PT021H.grib2 2026-05-08 02:46 695K
20260508T00Z_MSC_RDPS_SpecificHumidity_IsbL-0800_RLatLon0.09_PT021H.grib2 2026-05-08 02:46 773K
20260508T00Z_MSC_RDPS_SpecificHumidity_IsbL-0850_RLatLon0.09_PT021H.grib2 2026-05-08 02:46 841K
20260508T00Z_MSC_RDPS_SpecificHumidity_IsbL-0875_RLatLon0.09_PT021H.grib2 2026-05-08 02:46 721K
20260508T00Z_MSC_RDPS_SpecificHumidity_IsbL-0900_RLatLon0.09_PT021H.grib2 2026-05-08 02:46 731K
20260508T00Z_MSC_RDPS_SpecificHumidity_IsbL-0925_RLatLon0.09_PT021H.grib2 2026-05-08 02:46 733K
20260508T00Z_MSC_RDPS_SpecificHumidity_IsbL-0950_RLatLon0.09_PT021H.grib2 2026-05-08 02:46 732K
20260508T00Z_MSC_RDPS_SpecificHumidity_IsbL-0970_RLatLon0.09_PT021H.grib2 2026-05-08 02:46 724K
20260508T00Z_MSC_RDPS_SpecificHumidity_IsbL-0985_RLatLon0.09_PT021H.grib2 2026-05-08 02:46 714K
20260508T00Z_MSC_RDPS_SpecificHumidity_IsbL-1000_RLatLon0.09_PT021H.grib2 2026-05-08 02:46 708K
20260508T00Z_MSC_RDPS_SpecificHumidity_IsbL-1015_RLatLon0.09_PT021H.grib2 2026-05-08 02:46 696K
20260508T00Z_MSC_RDPS_SpecificHumidity_Sfc_RLatLon0.09_PT021H.grib2 2026-05-08 02:46 357K
20260508T00Z_MSC_RDPS_StormRelativeHelicity_EtaL-10000_RLatLon0.09_PT021H.grib2 2026-05-08 02:46 1.1M
20260508T00Z_MSC_RDPS_StormSeverityIndex_EtaL-10000_RLatLon0.09_PT021H.grib2 2026-05-08 02:46 1.1M
20260508T00Z_MSC_RDPS_Thickness_IsbL-0850to0700_RLatLon0.09_PT021H.grib2 2026-05-08 02:46 178K
20260508T00Z_MSC_RDPS_Thickness_IsbL-1000to0500_RLatLon0.09_PT021H.grib2 2026-05-08 02:46 199K
20260508T00Z_MSC_RDPS_Thickness_IsbL-1000to0850_RLatLon0.09_PT021H.grib2 2026-05-08 02:46 189K
20260508T00Z_MSC_RDPS_TotalCloudCover_Sfc_RLatLon0.09_PT021H.grib2 2026-05-08 02:46 661K
20260508T00Z_MSC_RDPS_TotalTotalsIndex_Sfc_RLatLon0.09_PT021H.grib2 2026-05-08 02:46 2.4M
20260508T00Z_MSC_RDPS_UVIndex-ClearSky_Sfc_RLatLon0.09_PT021H.grib2 2026-05-08 02:46 205K
20260508T00Z_MSC_RDPS_UVIndex_Sfc_RLatLon0.09_PT021H.grib2 2026-05-08 02:46 485K
20260508T00Z_MSC_RDPS_UpwardLongwaveRadiationFlux_NTAtm_RLatLon0.09_PT021H.grib2 2026-05-08 02:46 386K
20260508T00Z_MSC_RDPS_UpwardShortwaveRadiationFlux_NTAtm_RLatLon0.09_PT021H.grib2 2026-05-08 02:46 521K
20260508T00Z_MSC_RDPS_VerticalVelocity_IsbL-0250_RLatLon0.09_PT021H.grib2 2026-05-08 02:46 578K
20260508T00Z_MSC_RDPS_VerticalVelocity_IsbL-0500_RLatLon0.09_PT021H.grib2 2026-05-08 02:46 533K
20260508T00Z_MSC_RDPS_VerticalVelocity_IsbL-0700_RLatLon0.09_PT021H.grib2 2026-05-08 02:46 632K
20260508T00Z_MSC_RDPS_VerticalVelocity_IsbL-0850_RLatLon0.09_PT021H.grib2 2026-05-08 02:46 668K
20260508T00Z_MSC_RDPS_VerticalWindShear_EtaL-6500_RLatLon0.09_PT021H.grib2 2026-05-08 02:46 1.2M
20260508T00Z_MSC_RDPS_WindChill_Sfc_RLatLon0.09_PT021H.grib2 2026-05-08 02:46 1.2M
20260508T00Z_MSC_RDPS_WindDir_AGL-10m_RLatLon0.09_PT021H.grib2 2026-05-08 02:46 967K
20260508T00Z_MSC_RDPS_WindDir_AGL-120m_RLatLon0.09_PT021H.grib2 2026-05-08 02:46 613K
20260508T00Z_MSC_RDPS_WindDir_AGL-40m_RLatLon0.09_PT021H.grib2 2026-05-08 02:46 635K
20260508T00Z_MSC_RDPS_WindDir_AGL-80m_RLatLon0.09_PT021H.grib2 2026-05-08 02:46 622K
20260508T00Z_MSC_RDPS_WindDir_IsbL-0001_RLatLon0.09_PT021H.grib2 2026-05-08 02:46 278K
20260508T00Z_MSC_RDPS_WindDir_IsbL-0005_RLatLon0.09_PT021H.grib2 2026-05-08 02:46 362K
20260508T00Z_MSC_RDPS_WindDir_IsbL-0010_RLatLon0.09_PT021H.grib2 2026-05-08 02:46 376K
20260508T00Z_MSC_RDPS_WindDir_IsbL-0020_RLatLon0.09_PT021H.grib2 2026-05-08 02:46 427K
20260508T00Z_MSC_RDPS_WindDir_IsbL-0030_RLatLon0.09_PT021H.grib2 2026-05-08 02:46 415K
20260508T00Z_MSC_RDPS_WindDir_IsbL-0050_RLatLon0.09_PT021H.grib2 2026-05-08 02:46 446K
20260508T00Z_MSC_RDPS_WindDir_IsbL-0100_RLatLon0.09_PT021H.grib2 2026-05-08 02:46 409K
20260508T00Z_MSC_RDPS_WindDir_IsbL-0150_RLatLon0.09_PT021H.grib2 2026-05-08 02:46 427K
20260508T00Z_MSC_RDPS_WindDir_IsbL-0175_RLatLon0.09_PT021H.grib2 2026-05-08 02:46 450K
20260508T00Z_MSC_RDPS_WindDir_IsbL-0200_RLatLon0.09_PT021H.grib2 2026-05-08 02:46 467K
20260508T00Z_MSC_RDPS_WindDir_IsbL-0225_RLatLon0.09_PT021H.grib2 2026-05-08 02:46 470K
20260508T00Z_MSC_RDPS_WindDir_IsbL-0250_RLatLon0.09_PT021H.grib2 2026-05-08 02:46 467K
20260508T00Z_MSC_RDPS_WindDir_IsbL-0275_RLatLon0.09_PT021H.grib2 2026-05-08 02:46 481K
20260508T00Z_MSC_RDPS_WindDir_IsbL-0300_RLatLon0.09_PT021H.grib2 2026-05-08 02:46 476K
20260508T00Z_MSC_RDPS_WindDir_IsbL-0350_RLatLon0.09_PT021H.grib2 2026-05-08 02:46 498K
20260508T00Z_MSC_RDPS_WindDir_IsbL-0400_RLatLon0.09_PT021H.grib2 2026-05-08 02:46 522K
20260508T00Z_MSC_RDPS_WindDir_IsbL-0450_RLatLon0.09_PT021H.grib2 2026-05-08 02:46 541K
20260508T00Z_MSC_RDPS_WindDir_IsbL-0500_RLatLon0.09_PT021H.grib2 2026-05-08 02:46 564K
20260508T00Z_MSC_RDPS_WindDir_IsbL-0550_RLatLon0.09_PT021H.grib2 2026-05-08 02:46 577K
20260508T00Z_MSC_RDPS_WindDir_IsbL-0600_RLatLon0.09_PT021H.grib2 2026-05-08 02:46 597K
20260508T00Z_MSC_RDPS_WindDir_IsbL-0650_RLatLon0.09_PT021H.grib2 2026-05-08 02:46 634K
20260508T00Z_MSC_RDPS_WindDir_IsbL-0700_RLatLon0.09_PT021H.grib2 2026-05-08 02:46 682K
20260508T00Z_MSC_RDPS_WindDir_IsbL-0750_RLatLon0.09_PT021H.grib2 2026-05-08 02:46 737K
20260508T00Z_MSC_RDPS_WindDir_IsbL-0800_RLatLon0.09_PT021H.grib2 2026-05-08 02:46 802K
20260508T00Z_MSC_RDPS_WindDir_IsbL-0850_RLatLon0.09_PT021H.grib2 2026-05-08 02:46 861K
20260508T00Z_MSC_RDPS_WindDir_IsbL-0875_RLatLon0.09_PT021H.grib2 2026-05-08 02:46 884K
20260508T00Z_MSC_RDPS_WindDir_IsbL-0900_RLatLon0.09_PT021H.grib2 2026-05-08 02:46 902K
20260508T00Z_MSC_RDPS_WindDir_IsbL-0925_RLatLon0.09_PT021H.grib2 2026-05-08 02:46 915K
20260508T00Z_MSC_RDPS_WindDir_IsbL-0950_RLatLon0.09_PT021H.grib2 2026-05-08 02:46 917K
20260508T00Z_MSC_RDPS_WindDir_IsbL-0970_RLatLon0.09_PT021H.grib2 2026-05-08 02:46 921K
20260508T00Z_MSC_RDPS_WindDir_IsbL-0985_RLatLon0.09_PT021H.grib2 2026-05-08 02:46 931K
20260508T00Z_MSC_RDPS_WindDir_IsbL-1000_RLatLon0.09_PT021H.grib2 2026-05-08 02:46 944K
20260508T00Z_MSC_RDPS_WindDir_IsbL-1015_RLatLon0.09_PT021H.grib2 2026-05-08 02:46 960K
20260508T00Z_MSC_RDPS_WindGust-Max_AGL-10m_RLatLon0.09_PT021H.grib2 2026-05-08 02:46 951K
20260508T00Z_MSC_RDPS_WindGust-Min_AGL-10m_RLatLon0.09_PT021H.grib2 2026-05-08 02:46 1.0M
20260508T00Z_MSC_RDPS_WindGust_AGL-10m_RLatLon0.09_PT021H.grib2 2026-05-08 02:46 1.0M
20260508T00Z_MSC_RDPS_WindSpeed_AGL-10m_RLatLon0.09_PT021H.grib2 2026-05-08 02:46 844K
20260508T00Z_MSC_RDPS_WindSpeed_AGL-120m_RLatLon0.09_PT021H.grib2 2026-05-08 02:46 548K
20260508T00Z_MSC_RDPS_WindSpeed_AGL-40m_RLatLon0.09_PT021H.grib2 2026-05-08 02:46 543K
20260508T00Z_MSC_RDPS_WindSpeed_AGL-80m_RLatLon0.09_PT021H.grib2 2026-05-08 02:46 550K
20260508T00Z_MSC_RDPS_WindSpeed_IsbL-0001_RLatLon0.09_PT021H.grib2 2026-05-08 02:46 329K
20260508T00Z_MSC_RDPS_WindSpeed_IsbL-0005_RLatLon0.09_PT021H.grib2 2026-05-08 02:46 381K
20260508T00Z_MSC_RDPS_WindSpeed_IsbL-0010_RLatLon0.09_PT021H.grib2 2026-05-08 02:46 397K
20260508T00Z_MSC_RDPS_WindSpeed_IsbL-0020_RLatLon0.09_PT021H.grib2 2026-05-08 02:46 322K
20260508T00Z_MSC_RDPS_WindSpeed_IsbL-0030_RLatLon0.09_PT021H.grib2 2026-05-08 02:46 418K
20260508T00Z_MSC_RDPS_WindSpeed_IsbL-0050_RLatLon0.09_PT021H.grib2 2026-05-08 02:46 452K
20260508T00Z_MSC_RDPS_WindSpeed_IsbL-0100_RLatLon0.09_PT021H.grib2 2026-05-08 02:46 432K
20260508T00Z_MSC_RDPS_WindSpeed_IsbL-0150_RLatLon0.09_PT021H.grib2 2026-05-08 02:46 400K
20260508T00Z_MSC_RDPS_WindSpeed_IsbL-0175_RLatLon0.09_PT021H.grib2 2026-05-08 02:46 423K
20260508T00Z_MSC_RDPS_WindSpeed_IsbL-0200_RLatLon0.09_PT021H.grib2 2026-05-08 02:46 442K
20260508T00Z_MSC_RDPS_WindSpeed_IsbL-0225_RLatLon0.09_PT021H.grib2 2026-05-08 02:46 447K
20260508T00Z_MSC_RDPS_WindSpeed_IsbL-0250_RLatLon0.09_PT021H.grib2 2026-05-08 02:46 449K
20260508T00Z_MSC_RDPS_WindSpeed_IsbL-0275_RLatLon0.09_PT021H.grib2 2026-05-08 02:46 465K
20260508T00Z_MSC_RDPS_WindSpeed_IsbL-0300_RLatLon0.09_PT021H.grib2 2026-05-08 02:46 461K
20260508T00Z_MSC_RDPS_WindSpeed_IsbL-0350_RLatLon0.09_PT021H.grib2 2026-05-08 02:46 470K
20260508T00Z_MSC_RDPS_WindSpeed_IsbL-0400_RLatLon0.09_PT021H.grib2 2026-05-08 02:46 475K
20260508T00Z_MSC_RDPS_WindSpeed_IsbL-0450_RLatLon0.09_PT021H.grib2 2026-05-08 02:46 457K
20260508T00Z_MSC_RDPS_WindSpeed_IsbL-0500_RLatLon0.09_PT021H.grib2 2026-05-08 02:46 579K
20260508T00Z_MSC_RDPS_WindSpeed_IsbL-0550_RLatLon0.09_PT021H.grib2 2026-05-08 02:46 584K
20260508T00Z_MSC_RDPS_WindSpeed_IsbL-0600_RLatLon0.09_PT021H.grib2 2026-05-08 02:46 640K
20260508T00Z_MSC_RDPS_WindSpeed_IsbL-0650_RLatLon0.09_PT021H.grib2 2026-05-08 02:46 663K
20260508T00Z_MSC_RDPS_WindSpeed_IsbL-0700_RLatLon0.09_PT021H.grib2 2026-05-08 02:46 692K
20260508T00Z_MSC_RDPS_WindSpeed_IsbL-0750_RLatLon0.09_PT021H.grib2 2026-05-08 02:46 724K
20260508T00Z_MSC_RDPS_WindSpeed_IsbL-0800_RLatLon0.09_PT021H.grib2 2026-05-08 02:46 727K
20260508T00Z_MSC_RDPS_WindSpeed_IsbL-0850_RLatLon0.09_PT021H.grib2 2026-05-08 02:46 778K
20260508T00Z_MSC_RDPS_WindSpeed_IsbL-0875_RLatLon0.09_PT021H.grib2 2026-05-08 02:46 795K
20260508T00Z_MSC_RDPS_WindSpeed_IsbL-0900_RLatLon0.09_PT021H.grib2 2026-05-08 02:46 810K
20260508T00Z_MSC_RDPS_WindSpeed_IsbL-0925_RLatLon0.09_PT021H.grib2 2026-05-08 02:46 822K
20260508T00Z_MSC_RDPS_WindSpeed_IsbL-0950_RLatLon0.09_PT021H.grib2 2026-05-08 02:46 869K
20260508T00Z_MSC_RDPS_WindSpeed_IsbL-0970_RLatLon0.09_PT021H.grib2 2026-05-08 02:46 867K
20260508T00Z_MSC_RDPS_WindSpeed_IsbL-0985_RLatLon0.09_PT021H.grib2 2026-05-08 02:46 859K
20260508T00Z_MSC_RDPS_WindSpeed_IsbL-1000_RLatLon0.09_PT021H.grib2 2026-05-08 02:46 855K
20260508T00Z_MSC_RDPS_WindSpeed_IsbL-1015_RLatLon0.09_PT021H.grib2 2026-05-08 02:46 846K
20260508T00Z_MSC_RDPS_WindU_AGL-10m_RLatLon0.09_PT021H.grib2 2026-05-08 02:46 438K
20260508T00Z_MSC_RDPS_WindU_AGL-120m_RLatLon0.09_PT021H.grib2 2026-05-08 02:46 420K
20260508T00Z_MSC_RDPS_WindU_AGL-40m_RLatLon0.09_PT021H.grib2 2026-05-08 02:46 424K
20260508T00Z_MSC_RDPS_WindU_AGL-80m_RLatLon0.09_PT021H.grib2 2026-05-08 02:46 422K
20260508T00Z_MSC_RDPS_WindU_IsbL-0001_RLatLon0.09_PT021H.grib2 2026-05-08 02:46 242K
20260508T00Z_MSC_RDPS_WindU_IsbL-0005_RLatLon0.09_PT021H.grib2 2026-05-08 02:46 285K
20260508T00Z_MSC_RDPS_WindU_IsbL-0010_RLatLon0.09_PT021H.grib2 2026-05-08 02:46 297K
20260508T00Z_MSC_RDPS_WindU_IsbL-0020_RLatLon0.09_PT021H.grib2 2026-05-08 02:46 313K
20260508T00Z_MSC_RDPS_WindU_IsbL-0030_RLatLon0.09_PT021H.grib2 2026-05-08 02:46 313K
20260508T00Z_MSC_RDPS_WindU_IsbL-0050_RLatLon0.09_PT021H.grib2 2026-05-08 02:46 341K
20260508T00Z_MSC_RDPS_WindU_IsbL-0100_RLatLon0.09_PT021H.grib2 2026-05-08 02:46 331K
20260508T00Z_MSC_RDPS_WindU_IsbL-0150_RLatLon0.09_PT021H.grib2 2026-05-08 02:46 394K
20260508T00Z_MSC_RDPS_WindU_IsbL-0175_RLatLon0.09_PT021H.grib2 2026-05-08 02:46 418K
20260508T00Z_MSC_RDPS_WindU_IsbL-0200_RLatLon0.09_PT021H.grib2 2026-05-08 02:46 338K
20260508T00Z_MSC_RDPS_WindU_IsbL-0225_RLatLon0.09_PT021H.grib2 2026-05-08 02:46 340K
20260508T00Z_MSC_RDPS_WindU_IsbL-0250_RLatLon0.09_PT021H.grib2 2026-05-08 02:46 339K
20260508T00Z_MSC_RDPS_WindU_IsbL-0275_RLatLon0.09_PT021H.grib2 2026-05-08 02:46 352K
20260508T00Z_MSC_RDPS_WindU_IsbL-0300_RLatLon0.09_PT021H.grib2 2026-05-08 02:46 348K
20260508T00Z_MSC_RDPS_WindU_IsbL-0350_RLatLon0.09_PT021H.grib2 2026-05-08 02:46 355K
20260508T00Z_MSC_RDPS_WindU_IsbL-0400_RLatLon0.09_PT021H.grib2 2026-05-08 02:46 359K
20260508T00Z_MSC_RDPS_WindU_IsbL-0450_RLatLon0.09_PT021H.grib2 2026-05-08 02:46 462K
20260508T00Z_MSC_RDPS_WindU_IsbL-0500_RLatLon0.09_PT021H.grib2 2026-05-08 02:46 468K
20260508T00Z_MSC_RDPS_WindU_IsbL-0550_RLatLon0.09_PT021H.grib2 2026-05-08 02:46 474K
20260508T00Z_MSC_RDPS_WindU_IsbL-0600_RLatLon0.09_PT021H.grib2 2026-05-08 02:46 469K
20260508T00Z_MSC_RDPS_WindU_IsbL-0650_RLatLon0.09_PT021H.grib2 2026-05-08 02:46 490K
20260508T00Z_MSC_RDPS_WindU_IsbL-0700_RLatLon0.09_PT021H.grib2 2026-05-08 02:46 516K
20260508T00Z_MSC_RDPS_WindU_IsbL-0750_RLatLon0.09_PT021H.grib2 2026-05-08 02:46 545K
20260508T00Z_MSC_RDPS_WindU_IsbL-0800_RLatLon0.09_PT021H.grib2 2026-05-08 02:46 598K
20260508T00Z_MSC_RDPS_WindU_IsbL-0850_RLatLon0.09_PT021H.grib2 2026-05-08 02:46 631K
20260508T00Z_MSC_RDPS_WindU_IsbL-0875_RLatLon0.09_PT021H.grib2 2026-05-08 02:46 645K
20260508T00Z_MSC_RDPS_WindU_IsbL-0900_RLatLon0.09_PT021H.grib2 2026-05-08 02:46 657K
20260508T00Z_MSC_RDPS_WindU_IsbL-0925_RLatLon0.09_PT021H.grib2 2026-05-08 02:46 665K
20260508T00Z_MSC_RDPS_WindU_IsbL-0950_RLatLon0.09_PT021H.grib2 2026-05-08 02:46 664K
20260508T00Z_MSC_RDPS_WindU_IsbL-0970_RLatLon0.09_PT021H.grib2 2026-05-08 02:46 661K
20260508T00Z_MSC_RDPS_WindU_IsbL-0985_RLatLon0.09_PT021H.grib2 2026-05-08 02:46 658K
20260508T00Z_MSC_RDPS_WindU_IsbL-1000_RLatLon0.09_PT021H.grib2 2026-05-08 02:46 656K
20260508T00Z_MSC_RDPS_WindU_IsbL-1015_RLatLon0.09_PT021H.grib2 2026-05-08 02:46 789K
20260508T00Z_MSC_RDPS_WindV_AGL-10m_RLatLon0.09_PT021H.grib2 2026-05-08 02:46 434K
20260508T00Z_MSC_RDPS_WindV_AGL-120m_RLatLon0.09_PT021H.grib2 2026-05-08 02:46 533K
20260508T00Z_MSC_RDPS_WindV_AGL-40m_RLatLon0.09_PT021H.grib2 2026-05-08 02:46 536K
20260508T00Z_MSC_RDPS_WindV_AGL-80m_RLatLon0.09_PT021H.grib2 2026-05-08 02:46 534K
20260508T00Z_MSC_RDPS_WindV_IsbL-0001_RLatLon0.09_PT021H.grib2 2026-05-08 02:46 242K
20260508T00Z_MSC_RDPS_WindV_IsbL-0005_RLatLon0.09_PT021H.grib2 2026-05-08 02:46 286K
20260508T00Z_MSC_RDPS_WindV_IsbL-0010_RLatLon0.09_PT021H.grib2 2026-05-08 02:46 298K
20260508T00Z_MSC_RDPS_WindV_IsbL-0020_RLatLon0.09_PT021H.grib2 2026-05-08 02:46 314K
20260508T00Z_MSC_RDPS_WindV_IsbL-0030_RLatLon0.09_PT021H.grib2 2026-05-08 02:46 314K
20260508T00Z_MSC_RDPS_WindV_IsbL-0050_RLatLon0.09_PT021H.grib2 2026-05-08 02:46 343K
20260508T00Z_MSC_RDPS_WindV_IsbL-0100_RLatLon0.09_PT021H.grib2 2026-05-08 02:46 423K
20260508T00Z_MSC_RDPS_WindV_IsbL-0150_RLatLon0.09_PT021H.grib2 2026-05-08 02:46 391K
20260508T00Z_MSC_RDPS_WindV_IsbL-0175_RLatLon0.09_PT021H.grib2 2026-05-08 02:46 415K
20260508T00Z_MSC_RDPS_WindV_IsbL-0200_RLatLon0.09_PT021H.grib2 2026-05-08 02:46 337K
20260508T00Z_MSC_RDPS_WindV_IsbL-0225_RLatLon0.09_PT021H.grib2 2026-05-08 02:46 340K
20260508T00Z_MSC_RDPS_WindV_IsbL-0250_RLatLon0.09_PT021H.grib2 2026-05-08 02:46 364K
20260508T00Z_MSC_RDPS_WindV_IsbL-0275_RLatLon0.09_PT021H.grib2 2026-05-08 02:46 375K
20260508T00Z_MSC_RDPS_WindV_IsbL-0300_RLatLon0.09_PT021H.grib2 2026-05-08 02:46 346K
20260508T00Z_MSC_RDPS_WindV_IsbL-0350_RLatLon0.09_PT021H.grib2 2026-05-08 02:46 354K
20260508T00Z_MSC_RDPS_WindV_IsbL-0400_RLatLon0.09_PT021H.grib2 2026-05-08 02:46 357K
20260508T00Z_MSC_RDPS_WindV_IsbL-0450_RLatLon0.09_PT021H.grib2 2026-05-08 02:46 358K
20260508T00Z_MSC_RDPS_WindV_IsbL-0500_RLatLon0.09_PT021H.grib2 2026-05-08 02:46 464K
20260508T00Z_MSC_RDPS_WindV_IsbL-0550_RLatLon0.09_PT021H.grib2 2026-05-08 02:46 469K
20260508T00Z_MSC_RDPS_WindV_IsbL-0600_RLatLon0.09_PT021H.grib2 2026-05-08 02:46 480K
20260508T00Z_MSC_RDPS_WindV_IsbL-0650_RLatLon0.09_PT021H.grib2 2026-05-08 02:46 499K
20260508T00Z_MSC_RDPS_WindV_IsbL-0700_RLatLon0.09_PT021H.grib2 2026-05-08 02:46 522K
20260508T00Z_MSC_RDPS_WindV_IsbL-0750_RLatLon0.09_PT021H.grib2 2026-05-08 02:46 537K
20260508T00Z_MSC_RDPS_WindV_IsbL-0800_RLatLon0.09_PT021H.grib2 2026-05-08 02:46 578K
20260508T00Z_MSC_RDPS_WindV_IsbL-0850_RLatLon0.09_PT021H.grib2 2026-05-08 02:46 623K
20260508T00Z_MSC_RDPS_WindV_IsbL-0875_RLatLon0.09_PT021H.grib2 2026-05-08 02:46 640K
20260508T00Z_MSC_RDPS_WindV_IsbL-0900_RLatLon0.09_PT021H.grib2 2026-05-08 02:46 655K
20260508T00Z_MSC_RDPS_WindV_IsbL-0925_RLatLon0.09_PT021H.grib2 2026-05-08 02:46 663K
20260508T00Z_MSC_RDPS_WindV_IsbL-0950_RLatLon0.09_PT021H.grib2 2026-05-08 02:46 661K
20260508T00Z_MSC_RDPS_WindV_IsbL-0970_RLatLon0.09_PT021H.grib2 2026-05-08 02:46 658K
20260508T00Z_MSC_RDPS_WindV_IsbL-0985_RLatLon0.09_PT021H.grib2 2026-05-08 02:46 793K
20260508T00Z_MSC_RDPS_WindV_IsbL-1000_RLatLon0.09_PT021H.grib2 2026-05-08 02:46 789K
20260508T00Z_MSC_RDPS_WindV_IsbL-1015_RLatLon0.09_PT021H.grib2 2026-05-08 02:46 783K